Location: Unspecified
(62.4500°N, 0.0000°E)
Time: 06:08:53
(UTC+00:00)

Envisat - Visible Passes

Search period start: 20 October 2019 00:00
Search period end: 30 October 2019 00:00
Orbit: 764 x 766 km, 98.1° (Epoch: 19 October)

Date Brightness Start Highest point End Pass type
(mag) Time Alt. Az. Time Alt. Az. Time Alt. Az.
20 Oct 5.4 06:10:36 10° NNE 06:15:01 29° E 06:19:24 10° SSE visible
20 Oct 3.1 17:36:01 10° SSE 17:41:06 83° WSW 17:46:15 10° NNW visible
20 Oct 5.5 19:16:59 10° SW 19:20:55 22° W 19:24:53 10° NW visible
21 Oct 6.0 05:34:19 10° NE 05:37:44 18° E 05:41:08 10° SE visible
21 Oct 4.7 18:39:03 10° SSW 18:43:43 36° W 18:48:26 10° NNW visible
22 Oct 6.6 04:59:24 10° ENE 05:00:16 10° ENE 05:01:08 10° E visible
22 Oct 3.7 18:01:40 10° S 18:06:42 59° WSW 18:11:46 10° NNW visible
22 Oct 6.0 19:43:47 10° WSW 19:46:50 16° W 19:49:53 10° NW visible
23 Oct 5.7 05:59:25 10° NNE 06:03:37 25° E 06:07:47 10° SE visible
23 Oct 3.0 17:24:44 10° SSE 17:29:50 86° ENE 17:34:58 10° NNW visible
23 Oct 5.3 19:05:18 10° SW 19:09:31 26° W 19:13:44 10° NNW visible
24 Oct 6.1 05:23:19 10° NE 05:26:17 15° E 05:29:14 10° ESE visible
24 Oct 4.4 18:27:33 10° SSW 18:32:22 41° W 18:37:12 10° NNW visible
24 Oct 6.3 20:11:39 10° W 20:12:50 11° WNW 20:14:02 10° WNW visible
25 Oct 3.4 17:50:19 10° S 17:55:23 69° WSW 18:00:30 10° NNW visible
25 Oct 5.8 19:31:55 10° SW 19:35:23 18° W 19:38:52 10° NW visible
26 Oct 5.9 05:48:17 10° NE 05:52:12 22° E 05:56:05 10° SE visible
26 Oct 3.0 17:13:30 10° SSE 17:18:34 75° ENE 17:23:41 10° NNW visible
26 Oct 5.0 18:53:41 10° SSW 18:58:07 29° W 19:02:34 10° NNW visible
27 Oct 6.2 05:12:26 10° NE 05:14:49 13° ENE 05:17:10 10° ESE visible
27 Oct 4.1 18:16:06 10° S 18:21:01 48° W 18:25:59 10° NNW visible
27 Oct 6.1 19:59:09 10° WSW 20:01:21 13° WNW 20:03:34 10° NW visible
28 Oct 5.2 06:13:32 10° NNE 06:18:02 30° E 06:22:30 10° SSE visible
28 Oct 3.2 17:38:59 10° SSE 17:44:05 79° WSW 17:49:13 10° NNW visible
28 Oct 5.6 19:20:08 10° SW 19:23:57 21° W 19:27:48 10° NW visible
29 Oct 6.0 05:37:12 10° NE 05:40:46 19° E 05:44:19 10° SE visible
29 Oct 3.0 17:02:17 10° SE 17:07:19 65° ENE 17:12:23 10° NNW visible
29 Oct 4.7 18:42:07 10° SSW 18:46:44 34° W 18:51:22 10° NNW visible
